QPF
0.00 0.00 0.00 0.00 0.00 0.00 0.00 0.00 0.00 0.00 0.00 0.00 0.00 0.00 0.00 0.00 0.00 0.00 0.00 0.00 0.00 0.00 0.00 0.01 0.03 0.02 0.01 0.01 0.01 0.02 0.03 0.02 0.03 0.03 0.02 0.02 0.01 0.02 0.01 0.00 0.00 0.00 0.00 0.00 0.01 0.00 0.00 0.00 0.00
0.00 0.00 0.00 0.00 0.00 0.00 0.00 0.00 0.00 0.00 0.00 0.00 0.00 0.00 0.00 0.00 0.00 0.00 0.00 0.00 0.00 0.00 0.00 0.00 0.01 0.01 0.01 0.01 0.01 0.02 0.02 0.01 0.02 0.02 0.02 0.02 0.01 0.01 0.01 0.00 0.00 0.00 0.00 0.01 0.01 0.00 0.00 0.00 0.00
0.00 0.00 0.00 0.00 0.00 0.00 0.00 0.00 0.00 0.00 0.00 0.00 0.00 0.00 0.00 0.00 0.00 0.00 0.00 0.00 0.00 0.00 0.00 0.00 0.00 0.01 0.01 0.01 0.01 0.02 0.01 0.01 0.02 0.02 0.01 0.01 0.01 0.01 0.00 0.00 0.00 0.00 0.00 0.00 0.00 0.00 0.00 0.00 0.00
0.00 0.00 0.00 0.00 0.00 0.00 0.00 0.00 0.00 0.00 0.00 0.00 0.00 0.00 0.00 0.00 0.00 0.00 0.00 0.00 0.00 0.00 0.00 0.00 0.00 0.01 0.01 0.01 0.01 0.01 0.01 0.01 0.01 0.02 0.01 0.01 0.01 0.01 0.00 0.00 0.00 0.00 0.00 0.00 0.00 0.00 0.00 0.00 0.00
0.00 0.00 0.00 0.00 0.00 0.00 0.00 0.00 0.00 0.00 0.00 0.00 0.00 0.00 0.00 0.00 0.00 0.00 0.00 0.00 0.00 0.00 0.00 0.00 0.00 0.00 0.01 0.01 0.01 0.01 0.01 0.01 0.01 0.01 0.01 0.01 0.01 0.00 0.00 0.00 0.00 0.00 0.00 0.00 0.00 0.00 0.00 0.00 0.00
0.00 0.00 0.00 0.00 0.00 0.00 0.00 0.00 0.00 0.00 0.00 0.00 0.00 0.00 0.00 0.00 0.00 0.00 0.00 0.00 0.00 0.00 0.00 0.00 0.00 0.00 0.00 0.01 0.01 0.01 0.01 0.01 0.01 0.01 0.00 0.00 0.00 0.00 0.00 0.00 0.00 0.00 0.00 0.00 0.00 0.00 0.00 0.00 0.00
0.00 0.00 0.00 0.00 0.00 0.00 0.00 0.00 0.00 0.00 0.00 0.00 0.00 0.00 0.00 0.00 0.00 0.00 0.00 0.00 0.00 0.00 0.00 0.00 0.00 0.00 0.00 0.00 0.01 0.01 0.01 0.01 0.01 0.00 0.00 0.00 0.00 0.00 0.00 0.00 0.00 0.00 0.00 0.00 0.00 0.00 0.00 0.00 0.00
0.00 0.00 0.00 0.00 0.00 0.00 0.00 0.00 0.00 0.00 0.00 0.00 0.00 0.00 0.00 0.00 0.00 0.00 0.00 0.00 0.00 0.00 0.00 0.00 0.00 0.00 0.00 0.00 0.00 0.00 0.00 0.00 0.00 0.00 0.00 0.00 0.00 0.00 0.00 0.00 0.00 0.00 0.00 0.00 0.00 0.00 0.00 0.00 0.00
0.00 0.01 0.00 0.00 0.00 0.00 0.00 0.00 0.00 0.00 0.00 0.00 0.00 0.00 0.00 0.00 0.00 0.00 0.00 0.00 0.00 0.00 0.00 0.00 0.00 0.00 0.00 0.00 0.00 0.00 0.00 0.00 0.00 0.00 0.00 0.00 0.00 0.00 0.00 0.00 0.00 0.00 0.00 0.00 0.00 0.00 0.00 0.00 0.00
0.01 0.00 0.00 0.00 0.00 0.00 0.00 0.00 0.00 0.00 0.00 0.00 0.00 0.00 0.00 0.00 0.00 0.00 0.00 0.00 0.00 0.00 0.00 0.00 0.00 0.00 0.00 0.00 0.00 0.00 0.00 0.00 0.00 0.00 0.00 0.00 0.00 0.00 0.00 0.00 0.00 0.00 0.00 0.00 0.00 0.00 0.00 0.00 0.00
0.01 0.00 0.00 0.00 0.00 0.00 0.00 0.00 0.00 0.00 0.00 0.00 0.00 0.00 0.00 0.00 0.00 0.00 0.00 0.00 0.00 0.00 0.00 0.00 0.00 0.00 0.00 0.00 0.00 0.00 0.00 0.00 0.00 0.00 0.00 0.00 0.00 0.00 0.00 0.00 0.00 0.00 0.00 0.00 0.00 0.00 0.00 0.00 0.00
0.01 0.00 0.00 0.00 0.00 0.00 0.00 0.00 0.00 0.00 0.00 0.00 0.00 0.00 0.00 0.00 0.00 0.00 0.00 0.00 0.00 0.00 0.00 0.00 0.00 0.00 0.00 0.00 0.00 0.00 0.00 0.00 0.00 0.00 0.00 0.00 0.00 0.00 0.00 0.00 0.00 0.00 0.00 0.00 0.00 0.00 0.00 0.00 0.00
0.01 0.00 0.00 0.00 0.00 0.00 0.00 0.00 0.00 0.00 0.00 0.00 0.00 0.00 0.00 0.00 0.00 0.00 0.00 0.00 0.00 0.00 0.00 0.00 0.00 0.00 0.00 0.00 0.00 0.00 0.00 0.00 0.00 0.00 0.00 0.00 0.00 0.00 0.00 0.00 0.00 0.00 0.00 0.00 0.00 0.00 0.00 0.00 0.00
0.01 0.00 0.00 0.00 0.00 0.00 0.00 0.00 0.00 0.00 0.00 0.00 0.00 0.00 0.00 0.00 0.00 0.00 0.00 0.00 0.00 0.00 0.00 0.00 0.00 0.00 0.00 0.00 0.00 0.00 0.00 0.00 0.00 0.00 0.00 0.00 0.00 0.00 0.00 0.00 0.00 0.00 0.00 0.00 0.00 0.00 0.00 0.00 0.00
0.01 0.01 0.01 0.01 0.00 0.00 0.00 0.00 0.00 0.00 0.00 0.00 0.00 0.00 0.00 0.00 0.00 0.00 0.00 0.00 0.00 0.00 0.00 0.00 0.00 0.00 0.00 0.00 0.00 0.00 0.00 0.00 0.00 0.00 0.00 0.00 0.00 0.00 0.00 0.00 0.00 0.00 0.00 0.00 0.00 0.00 0.00 0.00 0.00
0.04 0.04 0.03 0.01 0.00 0.00 0.00 0.00 0.00 0.00 0.00 0.00 0.00 0.00 0.00 0.00 0.00 0.00 0.00 0.00 0.00 0.00 0.00 0.00 0.00 0.00 0.00 0.00 0.00 0.00 0.00 0.00 0.00 0.00 0.00 0.00 0.00 0.00 0.00 0.00 0.00 0.00 0.00 0.00 0.00 0.00 0.00 0.00 0.00
0.07 0.06 0.03 0.01 0.00 0.00 0.00 0.00 0.00 0.00 0.00 0.00 0.00 0.00 0.00 0.00 0.00 0.00 0.00 0.00 0.00 0.00 0.00 0.00 0.00 0.00 0.00 0.00 0.00 0.00 0.00 0.00 0.00 0.00 0.00 0.00 0.00 0.00 0.00 0.00 0.00 0.00 0.00 0.00 0.00 0.00 0.00 0.00 0.00
0.05 0.03 0.02 0.01 0.01 0.00 0.00 0.00 0.00 0.00 0.00 0.00 0.00 0.00 0.00 0.00 0.00 0.00 0.00 0.00 0.00 0.00 0.00 0.00 0.00 0.00 0.00 0.00 0.00 0.00 0.00 0.00 0.00 0.00 0.00 0.00 0.00 0.00 0.00 0.00 0.00 0.00 0.00 0.00 0.00 0.00 0.00 0.00 0.00
0.01 0.01 0.00 0.01 0.01 0.01 0.00 0.00 0.00 0.00 0.00 0.00 0.00 0.00 0.00 0.00 0.00 0.00 0.00 0.00 0.00 0.00 0.00 0.00 0.00 0.00 0.00 0.00 0.00 0.00 0.00 0.00 0.00 0.00 0.00 0.00 0.00 0.00 0.00 0.00 0.00 0.00 0.00 0.00 0.00 0.00 0.00 0.00 0.00
0.03 0.02 0.01 0.00 0.00 0.00 0.00 0.00 0.00 0.00 0.00 0.00 0.00 0.00 0.00 0.00 0.00 0.00 0.00 0.00 0.00 0.00 0.00 0.00 0.00 0.00 0.00 0.00 0.00 0.00 0.00 0.00 0.00 0.00 0.00 0.00 0.00 0.00 0.00 0.00 0.00 0.00 0.00 0.00 0.00 0.00 0.00 0.00 0.00
0.07 0.03 0.01 0.00 0.00 0.01 0.01 0.01 0.00 0.00 0.00 0.00 0.00 0.00 0.00 0.00 0.00 0.00 0.00 0.00 0.00 0.00 0.00 0.00 0.00 0.00 0.00 0.00 0.00 0.00 0.00 0.00 0.00 0.00 0.00 0.00 0.00 0.00 0.00 0.00 0.00 0.00 0.00 0.00 0.00 0.00 0.00 0.00 0.00
0.06 0.03 0.02 0.02 0.02 0.02 0.02 0.01 0.00 0.00 0.00 0.00 0.00 0.00 0.00 0.00 0.00 0.00 0.00 0.00 0.00 0.00 0.00 0.00 0.00 0.00 0.00 0.00 0.00 0.00 0.00 0.00 0.00 0.00 0.00 0.00 0.00 0.00 0.00 0.00 0.00 0.00 0.00 0.00 0.00 0.00 0.00 0.00 0.00
0.04 0.02 0.02 0.03 0.04 0.05 0.03 0.01 0.00 0.00 0.00 0.00 0.00 0.00 0.00 0.00 0.00 0.00 0.00 0.00 0.00 0.00 0.00 0.00 0.00 0.00 0.00 0.00 0.00 0.00 0.00 0.00 0.00 0.00 0.00 0.00 0.00 0.00 0.00 0.00 0.00 0.00 0.00 0.00 0.00 0.00 0.00 0.00 0.00
0.04 0.05 0.07 0.09 0.13 0.16 0.06 0.01 0.00 0.00 0.00 0.00 0.00 0.00 0.00 0.00 0.00 0.00 0.00 0.00 0.00 0.00 0.00 0.00 0.00 0.00 0.00 0.00 0.00 0.00 0.00 0.00 0.00 0.00 0.00 0.00 0.00 0.00 0.00 0.00 0.00 0.00 0.00 0.00 0.00 0.00 0.00 0.00 0.00
0.12 0.14 0.26 0.34 0.36 0.24 0.05 0.01 0.00 0.00 0.00 0.00 0.00 0.00 0.00 0.00 0.00 0.00 0.00 0.00 0.00 0.00 0.00 0.00 0.00 0.00 0.00 0.00 0.00 0.00 0.00 0.00 0.00 0.00 0.00 0.00 0.00 0.00 0.00 0.00 0.00 0.00 0.00 0.00 0.00 0.00 0.00 0.00 0.00
0.12 0.13 0.21 0.24 0.17 0.07 0.02 0.01 0.00 0.00 0.00 0.00 0.00 0.00 0.00 0.00 0.00 0.00 0.00 0.00 0.00 0.00 0.00 0.00 0.00 0.00 0.00 0.00 0.00 0.00 0.00 0.00 0.00 0.00 0.00 0.00 0.00 0.00 0.00 0.00 0.00 0.00 0.00 0.00 0.00 0.00 0.00 0.00 0.01
0.09 0.09 0.07 0.08 0.09 0.04 0.02 0.01 0.00 0.00 0.00 0.00 0.00 0.00 0.00 0.00 0.00 0.00 0.00 0.00 0.00 0.00 0.00 0.00 0.00 0.00 0.00 0.00 0.00 0.00 0.00 0.00 0.00 0.00 0.00 0.00 0.00 0.00 0.00 0.00 0.00 0.00 0.00 0.00 0.00 0.00 0.00 0.01 0.01
0.09 0.10 0.11 0.19 0.23 0.12 0.03 0.00 0.00 0.00 0.00 0.00 0.00 0.00 0.00 0.00 0.00 0.00 0.00 0.00 0.00 0.00 0.00 0.00 0.00 0.00 0.00 0.00 0.00 0.00 0.00 0.00 0.00 0.00 0.00 0.00 0.00 0.00 0.00 0.00 0.00 0.00 0.00 0.00 0.00 0.01 0.00 0.01 0.01
0.09 0.13 0.20 0.25 0.23 0.13 0.05 0.01 0.00 0.00 0.00 0.00 0.00 0.00 0.00 0.00 0.00 0.00 0.00 0.00 0.00 0.00 0.00 0.00 0.00 0.00 0.00 0.00 0.00 0.00 0.00 0.00 0.00 0.00 0.00 0.00 0.00 0.00 0.00 0.00 0.00 0.00 0.00 0.00 0.01 0.01 0.01 0.01 0.01
0.06 0.08 0.13 0.20 0.21 0.10 0.05 0.01 0.00 0.00 0.00 0.00 0.00 0.00 0.00 0.00 0.00 0.00 0.00 0.00 0.00 0.00 0.00 0.00 0.00 0.00 0.00 0.00 0.00 0.00 0.00 0.00 0.00 0.00 0.00 0.00 0.00 0.00 0.00 0.00 0.00 0.00 0.00 0.01 0.01 0.01 0.01 0.02 0.02
MSLP
1013.98 1014.76 1015.85 1017.12 1018.43 1019.64 1020.63 1021.32 1021.70 1021.81 1021.73 1021.56 1021.37 1021.23 1021.16 1021.15 1021.16 1021.16 1021.12 1021.04 1020.91 1020.78 1020.66 1020.58 1020.57 1020.61 1020.70 1020.81 1020.92 1021.02 1021.12 1021.22 1021.35 1021.52 1021.75 1022.03 1022.33 1022.64 1022.92 1023.16 1023.33 1023.45 1023.53 1023.58 1023.64 1023.71 1023.80 1023.90 1024.00
1014.66 1015.59 1016.78 1018.08 1019.33 1020.40 1021.18 1021.64 1021.78 1021.66 1021.41 1021.11 1020.87 1020.72 1020.68 1020.73 1020.81 1020.89 1020.92 1020.89 1020.81 1020.72 1020.63 1020.59 1020.62 1020.70 1020.83 1020.98 1021.14 1021.29 1021.43 1021.58 1021.74 1021.94 1022.18 1022.46 1022.75 1023.04 1023.29 1023.50 1023.66 1023.77 1023.85 1023.92 1023.99 1024.09 1024.21 1024.33 1024.45
1015.49 1016.53 1017.74 1018.98 1020.09 1020.96 1021.51 1021.72 1021.65 1021.37 1021.00 1020.67 1020.42 1020.32 1020.34 1020.46 1020.61 1020.75 1020.82 1020.83 1020.79 1020.72 1020.68 1020.68 1020.75 1020.88 1021.06 1021.26 1021.45 1021.63 1021.80 1021.96 1022.14 1022.34 1022.56 1022.81 1023.07 1023.31 1023.52 1023.69 1023.82 1023.92 1024.01 1024.11 1024.24 1024.39 1024.55 1024.72 1024.87
1016.39 1017.48 1018.64 1019.75 1020.66 1021.29 1021.59 1021.59 1021.34 1020.96 1020.57 1020.25 1020.07 1020.05 1020.16 1020.35 1020.56 1020.73 1020.83 1020.86 1020.84 1020.81 1020.81 1020.87 1020.99 1021.17 1021.39 1021.61 1021.83 1022.02 1022.19 1022.35 1022.51 1022.68 1022.88 1023.09 1023.29 1023.49 1023.65 1023.78 1023.89 1023.99 1024.10 1024.24 1024.42 1024.63 1024.87 1025.10 1025.30
1017.30 1018.37 1019.43 1020.35 1021.02 1021.39 1021.46 1021.27 1020.91 1020.50 1020.13 1019.90 1019.83 1019.92 1020.12 1020.37 1020.61 1020.80 1020.90 1020.94 1020.94 1020.95 1021.00 1021.11 1021.29 1021.52 1021.77 1022.01 1022.23 1022.41 1022.56 1022.69 1022.83 1022.98 1023.14 1023.32 1023.49 1023.64 1023.77 1023.87 1023.96 1024.06 1024.19 1024.37 1024.61 1024.89 1025.19 1025.48 1025.74
1018.13 1019.13 1020.04 1020.74 1021.16 1021.28 1021.15 1020.82 1020.40 1020.01 1019.73 1019.62 1019.68 1019.88 1020.17 1020.47 1020.72 1020.90 1020.99 1021.03 1021.05 1021.09 1021.20 1021.37 1021.60 1021.87 1022.15 1022.40 1022.60 1022.76 1022.88 1022.99 1023.11 1023.24 1023.40 1023.57 1023.73 1023.87 1023.98 1024.07 1024.14 1024.24 1024.39 1024.59 1024.87 1025.19 1025.55 1025.89 1026.19
1018.82 1019.71 1020.43 1020.91 1021.09 1021.00 1020.71 1020.29 1019.87 1019.55 1019.38 1019.41 1019.59 1019.89 1020.24 1020.56 1020.80 1020.96 1021.03 1021.07 1021.11 1021.19 1021.35 1021.58 1021.87 1022.18 1022.47 1022.71 1022.90 1023.03 1023.13 1023.23 1023.35 1023.51 1023.69 1023.89 1024.08 1024.23 1024.35 1024.43 1024.51 1024.59 1024.73 1024.94 1025.23 1025.57 1025.94 1026.31 1026.62
1019.34 1020.09 1020.62 1020.88 1020.86 1020.61 1020.20 1019.76 1019.37 1019.14 1019.10 1019.24 1019.54 1019.91 1020.28 1020.60 1020.81 1020.93 1020.98 1021.02 1021.08 1021.21 1021.43 1021.73 1022.07 1022.41 1022.71 1022.94 1023.11 1023.23 1023.33 1023.44 1023.59 1023.79 1024.04 1024.30 1024.54 1024.74 1024.88 1024.98 1025.04 1025.11 1025.22 1025.41 1025.66 1025.99 1026.35 1026.70 1027.00
1019.67 1020.27 1020.62 1020.70 1020.52 1020.15 1019.70 1019.26 1018.94 1018.80 1018.87 1019.12 1019.48 1019.89 1020.26 1020.55 1020.72 1020.80 1020.83 1020.87 1020.96 1021.15 1021.43 1021.78 1022.17 1022.54 1022.85 1023.09 1023.25 1023.36 1023.47 1023.62 1023.83 1024.10 1024.43 1024.77 1025.08 1025.34 1025.52 1025.63 1025.68 1025.72 1025.79 1025.93 1026.13 1026.41 1026.73 1027.05 1027.33
1019.82 1020.27 1020.47 1020.40 1020.12 1019.70 1019.24 1018.85 1018.60 1018.56 1018.71 1019.02 1019.41 1019.82 1020.16 1020.39 1020.52 1020.57 1020.59 1020.65 1020.78 1021.02 1021.37 1021.78 1022.21 1022.60 1022.93 1023.16 1023.33 1023.45 1023.59 1023.78 1024.05 1024.40 1024.81 1025.23 1025.62 1025.94 1026.15 1026.27 1026.31 1026.32 1026.35 1026.43 1026.58 1026.79 1027.06 1027.34 1027.58
1019.78 1020.11 1020.19 1020.04 1019.71 1019.29 1018.87 1018.55 1018.38 1018.41 1018.61 1018.94 1019.32 1019.69 1019.98 1020.16 1020.25 1020.27 1020.30 1020.38 1020.56 1020.86 1021.26 1021.73 1022.19 1022.61 1022.95 1023.19 1023.37 1023.51 1023.68 1023.91 1024.24 1024.65 1025.13 1025.61 1026.06 1026.41 1026.66 1026.78 1026.82 1026.81 1026.80 1026.83 1026.93 1027.10 1027.32 1027.56 1027.78
1019.61 1019.84 1019.85 1019.67 1019.35 1018.97 1018.62 1018.37 1018.27 1018.34 1018.56 1018.87 1019.21 1019.52 1019.74 1019.87 1019.91 1019.93 1019.97 1020.09 1020.33 1020.68 1021.14 1021.64 1022.13 1022.57 1022.92 1023.18 1023.37 1023.54 1023.73 1024.00 1024.36 1024.81 1025.32 1025.83 1026.30 1026.68 1026.94 1027.07 1027.11 1027.10 1027.09 1027.11 1027.18 1027.33 1027.53 1027.75 1027.96
1019.33 1019.51 1019.50 1019.34 1019.07 1018.77 1018.50 1018.32 1018.27 1018.35 1018.55 1018.81 1019.08 1019.30 1019.45 1019.53 1019.55 1019.57 1019.64 1019.80 1020.09 1020.48 1020.97 1021.50 1022.02 1022.47 1022.83 1023.11 1023.32 1023.51 1023.73 1024.02 1024.39 1024.84 1025.35 1025.85 1026.31 1026.69 1026.95 1027.10 1027.17 1027.18 1027.20 1027.24 1027.34 1027.49 1027.70 1027.93 1028.15
1019.01 1019.17 1019.19 1019.09 1018.91 1018.70 1018.51 1018.39 1018.35 1018.42 1018.56 1018.74 1018.91 1019.05 1019.13 1019.16 1019.17 1019.20 1019.30 1019.49 1019.81 1020.23 1020.74 1021.28 1021.80 1022.26 1022.64 1022.94 1023.18 1023.40 1023.64 1023.94 1024.30 1024.73 1025.20 1025.67 1026.09 1026.45 1026.71 1026.89 1027.00 1027.08 1027.16 1027.27 1027.42 1027.63 1027.86 1028.12 1028.36
1018.71 1018.90 1018.98 1018.97 1018.89 1018.76 1018.64 1018.55 1018.51 1018.52 1018.57 1018.64 1018.71 1018.75 1018.77 1018.76 1018.76 1018.80 1018.92 1019.14 1019.47 1019.90 1020.39 1020.92 1021.44 1021.91 1022.31 1022.64 1022.92 1023.18 1023.45 1023.75 1024.10 1024.50 1024.91 1025.32 1025.71 1026.04 1026.31 1026.52 1026.70 1026.86 1027.03 1027.23 1027.47 1027.74 1028.03 1028.32 1028.59
1018.49 1018.74 1018.91 1018.99 1019.00 1018.96 1018.88 1018.79 1018.69 1018.62 1018.56 1018.51 1018.46 1018.41 1018.36 1018.32 1018.31 1018.36 1018.48 1018.71 1019.03 1019.43 1019.90 1020.41 1020.91 1021.38 1021.80 1022.18 1022.51 1022.83 1023.13 1023.45 1023.79 1024.15 1024.52 1024.88 1025.22 1025.53 1025.82 1026.08 1026.33 1026.59 1026.87 1027.17 1027.50 1027.84 1028.17 1028.50 1028.79
1018.37 1018.70 1018.97 1019.15 1019.25 1019.25 1019.19 1019.06 1018.89 1018.70 1018.51 1018.32 1018.16 1018.01 1017.90 1017.83 1017.81 1017.85 1017.97 1018.18 1018.47 1018.83 1019.25 1019.71 1020.19 1020.67 1021.12 1021.55 1021.94 1022.32 1022.68 1023.04 1023.39 1023.73 1024.06 1024.39 1024.70 1025.01 1025.31 1025.63 1025.96 1026.31 1026.68 1027.07 1027.47 1027.87 1028.24 1028.58 1028.89
1018.35 1018.78 1019.15 1019.41 1019.57 1019.60 1019.51 1019.31 1019.04 1018.72 1018.39 1018.07 1017.78 1017.55 1017.38 1017.28 1017.24 1017.27 1017.38 1017.55 1017.79 1018.10 1018.46 1018.87 1019.32 1019.79 1020.27 1020.75 1021.22 1021.67 1022.10 1022.50 1022.88 1023.23 1023.55 1023.86 1024.17 1024.48 1024.82 1025.18 1025.57 1026.00 1026.45 1026.90 1027.35 1027.77 1028.15 1028.50 1028.81
1018.38 1018.91 1019.36 1019.71 1019.90 1019.92 1019.78 1019.50 1019.11 1018.64 1018.17 1017.72 1017.32 1017.01 1016.79 1016.66 1016.60 1016.62 1016.70 1016.83 1017.02 1017.27 1017.56 1017.92 1018.34 1018.80 1019.31 1019.83 1020.37 1020.89 1021.39 1021.85 1022.26 1022.63 1022.97 1023.29 1023.61 1023.94 1024.30 1024.71 1025.15 1025.62 1026.10 1026.59 1027.05 1027.47 1027.85 1028.19 1028.49
1018.38 1019.00 1019.54 1019.93 1020.13 1020.13 1019.93 1019.55 1019.03 1018.43 1017.82 1017.25 1016.76 1016.38 1016.11 1015.95 1015.89 1015.89 1015.95 1016.04 1016.18 1016.37 1016.61 1016.92 1017.30 1017.75 1018.27 1018.83 1019.41 1019.99 1020.55 1021.06 1021.51 1021.92 1022.28 1022.62 1022.96 1023.32 1023.71 1024.14 1024.60 1025.09 1025.59 1026.07 1026.52 1026.92 1027.29 1027.61 1027.91
1018.27 1018.96 1019.55 1019.97 1020.18 1020.14 1019.86 1019.38 1018.74 1018.03 1017.30 1016.63 1016.06 1015.63 1015.33 1015.16 1015.08 1015.07 1015.11 1015.19 1015.29 1015.43 1015.63 1015.90 1016.25 1016.69 1017.20 1017.78 1018.38 1018.99 1019.58 1020.12 1020.61 1021.04 1021.44 1021.81 1022.17 1022.56 1022.97 1023.42 1023.89 1024.38 1024.86 1025.31 1025.74 1026.12 1026.46 1026.78 1027.09
1017.96 1018.70 1019.33 1019.76 1019.95 1019.87 1019.52 1018.95 1018.22 1017.41 1016.59 1015.85 1015.23 1014.75 1014.43 1014.25 1014.17 1014.16 1014.20 1014.26 1014.35 1014.47 1014.64 1014.88 1015.21 1015.63 1016.13 1016.69 1017.30 1017.91 1018.50 1019.05 1019.55 1020.00 1020.42 1020.81 1021.20 1021.61 1022.05 1022.51 1022.98 1023.45 1023.91 1024.34 1024.74 1025.10 1025.44 1025.76 1026.09
1017.43 1018.20 1018.83 1019.26 1019.42 1019.30 1018.90 1018.26 1017.46 1016.58 1015.70 1014.91 1014.25 1013.76 1013.43 1013.24 1013.16 1013.16 1013.20 1013.26 1013.35 1013.47 1013.63 1013.86 1014.17 1014.57 1015.05 1015.59 1016.16 1016.75 1017.31 1017.85 1018.34 1018.80 1019.23 1019.65 1020.07 1020.50 1020.96 1021.43 1021.90 1022.36 1022.81 1023.22 1023.60 1023.96 1024.30 1024.64 1025.00
1016.71 1017.47 1018.09 1018.49 1018.62 1018.46 1018.01 1017.32 1016.48 1015.56 1014.66 1013.84 1013.17 1012.67 1012.33 1012.14 1012.06 1012.06 1012.11 1012.18 1012.28 1012.40 1012.58 1012.81 1013.11 1013.50 1013.95 1014.45 1014.99 1015.53 1016.05 1016.55 1017.03 1017.48 1017.92 1018.36 1018.81 1019.28 1019.75 1020.24 1020.72 1021.19 1021.63 1022.04 1022.42 1022.78 1023.15 1023.52 1023.91
1015.91 1016.63 1017.20 1017.55 1017.63 1017.42 1016.93 1016.22 1015.35 1014.42 1013.51 1012.70 1012.03 1011.53 1011.19 1011.00 1010.92 1010.92 1010.96 1011.04 1011.15 1011.29 1011.47 1011.71 1012.02 1012.39 1012.82 1013.28 1013.77 1014.27 1014.75 1015.22 1015.67 1016.11 1016.56 1017.03 1017.51 1018.01 1018.52 1019.03 1019.53 1020.01 1020.46 1020.88 1021.27 1021.66 1022.04 1022.44 1022.86
1015.15 1015.78 1016.27 1016.54 1016.55 1016.28 1015.75 1015.02 1014.15 1013.23 1012.35 1011.56 1010.91 1010.42 1010.09 1009.89 1009.80 1009.78 1009.82 1009.89 1009.99 1010.14 1010.33 1010.57 1010.88 1011.24 1011.65 1012.09 1012.54 1012.99 1013.44 1013.88 1014.32 1014.77 1015.23 1015.72 1016.24 1016.78 1017.32 1017.87 1018.39 1018.89 1019.36 1019.79 1020.21 1020.61 1021.02 1021.43 1021.86
1014.55 1015.07 1015.44 1015.60 1015.51 1015.16 1014.59 1013.83 1012.97 1012.08 1011.23 1010.48 1009.87 1009.40 1009.08 1008.88 1008.77 1008.74 1008.75 1008.79 1008.88 1009.01 1009.20 1009.43 1009.74 1010.09 1010.48 1010.89 1011.32 1011.75 1012.17 1012.60 1013.04 1013.49 1013.98 1014.50 1015.05 1015.63 1016.21 1016.79 1017.34 1017.85 1018.34 1018.79 1019.21 1019.63 1020.04 1020.46 1020.87
1014.22 1014.58 1014.80 1014.81 1014.59 1014.14 1013.50 1012.71 1011.85 1010.99 1010.19 1009.50 1008.94 1008.52 1008.23 1008.03 1007.91 1007.85 1007.83 1007.84 1007.89 1007.99 1008.14 1008.36 1008.64 1008.97 1009.34 1009.74 1010.15 1010.56 1010.98 1011.41 1011.86 1012.33 1012.84 1013.39 1013.98 1014.58 1015.19 1015.78 1016.35 1016.87 1017.36 1017.82 1018.25 1018.66 1019.07 1019.47 1019.85
1014.17 1014.35 1014.37 1014.20 1013.81 1013.23 1012.50 1011.67 1010.80 1009.98 1009.24 1008.63 1008.14 1007.79 1007.54 1007.38 1007.27 1007.19 1007.13 1007.10 1007.10 1007.15 1007.25 1007.42 1007.66 1007.96 1008.31 1008.68 1009.08 1009.48 1009.90 1010.34 1010.80 1011.29 1011.82 1012.39 1012.99 1013.61 1014.22 1014.82 1015.38 1015.90 1016.38 1016.82 1017.23 1017.63 1018.02 1018.39 1018.74
1014.33 1014.31 1014.11 1013.73 1013.15 1012.41 1011.57 1010.67 1009.80 1009.00 1008.33 1007.80 1007.41 1007.15 1006.98 1006.87 1006.79 1006.72 1006.64 1006.58 1006.53 1006.52 1006.57 1006.68 1006.86 1007.11 1007.42 1007.76 1008.14 1008.54 1008.96 1009.39 1009.86 1010.36 1010.90 1011.47 1012.07 1012.67 1013.27 1013.84 1014.38 1014.87 1015.32 1015.74 1016.12 1016.50 1016.85 1017.20 1017.52
Thickness
5731 5736 5737 5728 5705 5682 5682 5693 5700 5703 5705 5708 5709 5706 5701 5699 5695 5693 5701 5705 5703 5700 5698 5696 5694 5692 5691 5690 5688 5688 5687 5687 5686 5686 5685 5685 5684 5684 5683 5683 5682 5682 5681 5681 5680 5679 5678 5678 5677
5728 5731 5725 5708 5683 5669 5678 5693 5698 5704 5708 5706 5706 5704 5702 5700 5703 5702 5703 5704 5703 5700 5698 5696 5693 5692 5690 5688 5687 5686 5686 5685 5685 5684 5683 5683 5682 5682 5681 5681 5680 5679 5679 5679 5678 5677 5676 5675 5675
5724 5724 5707 5689 5676 5671 5684 5697 5700 5706 5708 5706 5701 5702 5702 5701 5703 5703 5706 5704 5702 5699 5697 5695 5693 5691 5689 5687 5686 5685 5684 5684 5683 5682 5682 5681 5680 5680 5679 5679 5678 5678 5677 5677 5676 5675 5674 5673 5672
5714 5707 5694 5680 5677 5683 5690 5699 5701 5702 5705 5705 5701 5698 5701 5706 5707 5707 5707 5704 5701 5698 5696 5694 5692 5690 5688 5686 5685 5684 5683 5682 5681 5681 5680 5679 5679 5678 5677 5677 5676 5675 5675 5674 5673 5672 5671 5670 5670
5703 5690 5677 5668 5677 5687 5694 5701 5702 5701 5702 5702 5700 5697 5699 5705 5709 5708 5705 5703 5700 5697 5695 5693 5692 5689 5687 5685 5684 5682 5681 5681 5680 5679 5678 5677 5677 5676 5675 5674 5674 5673 5672 5672 5671 5670 5669 5668 5667
5684 5676 5662 5660 5673 5685 5694 5701 5701 5701 5700 5700 5698 5696 5699 5704 5706 5705 5704 5701 5699 5696 5694 5692 5690 5688 5686 5685 5683 5681 5680 5679 5678 5677 5677 5676 5675 5674 5673 5672 5672 5671 5670 5669 5669 5668 5667 5666 5665
5672 5664 5660 5665 5670 5680 5694 5700 5699 5698 5698 5699 5700 5695 5697 5701 5704 5704 5702 5699 5696 5694 5693 5691 5689 5687 5685 5683 5682 5680 5679 5678 5677 5676 5675 5674 5673 5672 5671 5670 5669 5668 5667 5667 5666 5665 5665 5664 5663
5670 5661 5659 5661 5667 5677 5692 5698 5702 5700 5700 5703 5702 5696 5696 5702 5702 5701 5698 5696 5694 5692 5691 5689 5688 5686 5684 5682 5680 5679 5677 5676 5675 5674 5673 5672 5671 5670 5669 5668 5667 5666 5665 5664 5663 5663 5662 5662 5661
5667 5651 5651 5661 5667 5678 5689 5693 5698 5702 5698 5698 5701 5703 5704 5704 5701 5698 5695 5693 5691 5690 5689 5688 5686 5684 5683 5681 5679 5677 5676 5674 5673 5672 5671 5670 5669 5667 5667 5666 5665 5664 5663 5662 5661 5660 5660 5659 5658
5655 5645 5656 5669 5674 5679 5685 5689 5692 5693 5693 5694 5697 5699 5701 5700 5699 5697 5695 5694 5692 5690 5689 5687 5685 5683 5681 5679 5677 5676 5674 5673 5672 5670 5669 5668 5667 5666 5665 5664 5663 5662 5661 5660 5659 5658 5658 5657 5655
5650 5650 5662 5669 5675 5679 5681 5685 5689 5689 5688 5694 5697 5698 5697 5697 5697 5696 5696 5695 5694 5692 5689 5687 5684 5682 5680 5678 5676 5674 5672 5671 5670 5669 5667 5666 5665 5664 5663 5662 5661 5660 5659 5658 5657 5657 5655 5654 5653
5643 5652 5660 5666 5672 5673 5676 5680 5682 5686 5694 5703 5703 5702 5698 5697 5697 5698 5697 5696 5694 5691 5689 5687 5684 5681 5679 5677 5675 5673 5671 5669 5668 5667 5665 5664 5663 5661 5660 5660 5659 5658 5657 5656 5655 5654 5653 5651 5650
5636 5647 5655 5661 5664 5667 5671 5672 5677 5684 5694 5698 5699 5696 5696 5698 5699 5699 5697 5695 5693 5691 5689 5687 5684 5681 5678 5675 5673 5671 5670 5668 5667 5665 5664 5663 5661 5660 5658 5657 5656 5656 5655 5654 5652 5651 5650 5648 5647
5633 5640 5647 5653 5656 5660 5663 5667 5671 5683 5689 5691 5691 5692 5695 5697 5698 5696 5695 5695 5694 5693 5690 5688 5685 5681 5678 5675 5673 5671 5669 5667 5665 5664 5663 5661 5660 5658 5657 5655 5654 5653 5652 5651 5649 5648 5646 5645 5643
5626 5627 5634 5642 5648 5653 5655 5656 5667 5681 5683 5684 5686 5688 5691 5694 5695 5697 5698 5698 5697 5694 5692 5688 5686 5682 5678 5676 5673 5670 5668 5666 5665 5663 5662 5660 5659 5657 5655 5654 5652 5651 5650 5648 5646 5644 5643 5641 5639
5612 5613 5618 5635 5640 5645 5642 5648 5668 5676 5676 5678 5681 5683 5687 5691 5695 5697 5698 5698 5697 5694 5692 5689 5686 5683 5679 5676 5673 5670 5668 5666 5664 5663 5661 5659 5657 5656 5654 5652 5651 5649 5647 5645 5643 5641 5639 5637 5635
5597 5603 5612 5624 5633 5636 5635 5644 5665 5671 5670 5674 5678 5681 5684 5688 5692 5696 5697 5698 5697 5695 5693 5690 5687 5684 5681 5677 5673 5671 5668 5666 5664 5662 5660 5659 5657 5655 5653 5651 5649 5647 5644 5642 5640 5638 5636 5633 5631
5596 5599 5605 5612 5625 5625 5627 5638 5655 5663 5664 5669 5673 5677 5681 5686 5694 5697 5698 5698 5697 5696 5693 5691 5688 5685 5681 5677 5673 5670 5667 5666 5664 5663 5661 5659 5656 5654 5652 5650 5648 5645 5642 5640 5637 5635 5632 5630 5627
5594 5595 5598 5607 5616 5616 5621 5631 5646 5655 5656 5662 5668 5673 5680 5688 5695 5695 5697 5697 5696 5695 5693 5692 5689 5686 5681 5678 5675 5672 5670 5667 5665 5663 5662 5659 5657 5654 5651 5649 5646 5644 5641 5639 5636 5632 5628 5625 5622
5583 5585 5590 5597 5604 5607 5610 5621 5638 5649 5654 5662 5670 5676 5681 5686 5690 5693 5695 5696 5697 5697 5695 5693 5691 5688 5685 5683 5680 5676 5673 5670 5668 5665 5663 5660 5658 5655 5652 5649 5646 5643 5640 5637 5633 5630 5626 5622 5618
5578 5583 5588 5588 5593 5595 5596 5607 5628 5646 5652 5661 5670 5678 5684 5688 5691 5694 5695 5696 5697 5698 5698 5697 5695 5692 5689 5685 5680 5675 5672 5669 5667 5666 5664 5661 5658 5655 5652 5650 5646 5643 5640 5637 5633 5629 5625 5620 5615
5577 5585 5582 5580 5578 5581 5583 5592 5624 5639 5648 5660 5670 5675 5682 5688 5692 5695 5696 5697 5698 5701 5700 5699 5697 5694 5691 5686 5682 5679 5676 5675 5675 5671 5667 5663 5659 5656 5653 5650 5646 5643 5640 5637 5633 5629 5624 5620 5615
5573 5578 5575 5573 5570 5569 5572 5577 5614 5629 5643 5663 5673 5678 5684 5689 5692 5695 5698 5700 5701 5701 5700 5700 5698 5695 5693 5688 5686 5682 5679 5679 5675 5670 5667 5663 5660 5656 5653 5650 5646 5643 5640 5637 5632 5628 5623 5620 5616
5564 5564 5562 5561 5558 5561 5578 5572 5602 5625 5651 5662 5671 5678 5684 5689 5691 5695 5698 5699 5700 5700 5699 5698 5697 5695 5693 5690 5687 5684 5682 5679 5674 5671 5667 5664 5660 5657 5654 5650 5647 5643 5640 5637 5632 5627 5623 5619 5615
5554 5551 5547 5548 5551 5565 5578 5569 5607 5640 5652 5663 5670 5675 5681 5686 5688 5691 5694 5695 5697 5697 5698 5697 5696 5695 5693 5690 5687 5686 5684 5680 5676 5673 5669 5664 5661 5658 5656 5651 5647 5644 5641 5637 5632 5626 5622 5618 5614
5556 5554 5550 5551 5555 5559 5559 5572 5616 5637 5647 5656 5665 5672 5676 5680 5683 5687 5692 5694 5696 5696 5696 5696 5695 5695 5693 5690 5688 5686 5683 5679 5677 5674 5670 5666 5663 5661 5657 5651 5648 5644 5640 5635 5630 5625 5622 5617 5613
5545 5546 5554 5544 5540 5543 5548 5566 5598 5622 5634 5644 5654 5661 5668 5674 5677 5682 5686 5689 5692 5693 5694 5695 5694 5693 5692 5690 5687 5684 5682 5678 5677 5674 5669 5665 5663 5660 5655 5650 5646 5642 5638 5634 5628 5624 5621 5616 5612
5545 5546 5539 5535 5538 5542 5549 5560 5597 5623 5632 5639 5646 5656 5665 5668 5671 5676 5680 5683 5686 5688 5689 5689 5690 5691 5689 5687 5685 5683 5680 5678 5675 5670 5667 5664 5661 5656 5652 5648 5644 5640 5635 5631 5626 5623 5619 5614 5611
5534 5534 5536 5536 5535 5541 5543 5573 5616 5628 5634 5638 5647 5654 5659 5663 5668 5671 5674 5676 5678 5679 5680 5681 5683 5683 5683 5682 5680 5678 5676 5673 5670 5666 5664 5661 5657 5652 5648 5644 5640 5636 5632 5628 5623 5620 5616 5612 5608
5532 5537 5536 5533 5533 5536 5546 5577 5619 5622 5629 5633 5640 5646 5651 5655 5660 5662 5664 5665 5666 5668 5670 5672 5674 5676 5677 5676 5673 5672 5670 5666 5664 5662 5660 5656 5653 5649 5644 5640 5636 5632 5628 5624 5620 5617 5613 5609 5606